Regional Weather Roundup
Issued by NWS Grand Forks, ND

Home | Current Version | Previous Version | Text Only | Print | Product List | Glossary On
Versions: 1 2 3 4 5 6 7 8 9 10 11 12 13 14 15 16 17 18 19 20 21 22 23 24 25 26 27 28 29 30 31 32 33 34 35 36 37 38 39 40 41 42 43 44 45 46 47 48 49 50
000
ASUS43 KFGF 271510
RWRFGF
PRAIRIE TO PINES  WEATHER ROUNDUP
NATIONAL WEATHER SERVICE EASTERN NORTH DAKOTA/GRAND FORKS ND
900 AM CST FRI FEB 27 2015

 **SATELLITE DATA USED TO AUGMENT SKY COVER AT AUTOMATED STATIONS**
 *****  WEATHER ACROSS EASTERN NORTH DAKOTA  *****

CITY           SKY/WX    TMP DP  RH WIND       PRES   REMARKS
GRAND FORKS    MOSUNNY   -6 -13  71 SW5       30.44S WCI -17
GRAND FRKS AFB MOSUNNY   -2 -11  64 W7        30.43F WCI -15
GRAND FRKS NWS   N/A     -4 N/A N/A SW3         N/A
DEVILS LAKE    MOSUNNY  N/A N/A N/A MISG        N/A
FARGO          SUNNY     -4 -12  68 SW9       30.49S WCI -20
WAHPETON ARPT  SUNNY     -4  -9  77 W9        30.52S WCI -20
$$

 ***** WEATHER ACROSS CENTRAL AND WESTERN NORTH DAKOTA  *****

CITY           SKY/WX    TMP DP  RH WIND       PRES   REMARKS
BISMARCK       MOSUNNY   -7 -12  79 SE3       30.40F
MINOT          PTSUNNY   -3 -10  72 SW13      30.32S WCI -22
JAMESTOWN      MOSUNNY   -5 -11  75 SW5       30.41F WCI -16
MINOT AFB      PTSUNNY   -3  -9  74 SW9       30.31F WCI -19
GARRISON         N/A    -11 -11 100 CALM      30.32F
WILLISTON      MOSUNNY   -4  -9  79 CALM      30.26F
DICKINSON      SUNNY      2  -5  72 S13       30.20F WCI -15
HETTINGER      SUNNY      1  -5  75 S6        30.24F WCI -10
$$

 *****  OTHER AIRPORT OBSERVATIONS IN OUR AREA  *****

CITY           SKY/WX    TMP DP  RH WIND       PRES   REMARKS
WALHALLA         N/A      0 -11  60 W8        30.38S WCI -15
GRAFTON AIRPOR NOT AVBL
VALLEY CITY AR FAIR      -4 -11  71 W5        30.43S WCI -15
CANDO          FAIR      -9 -13  84 CALM      30.37F
CAVALIER APRT  FAIR       1  -9  60 W10       30.39R WCI -14
GWINNER        SUNNY     -4  -9  77 SW10      30.49S WCI -21
SHEYENNE NWR     N/A     -3 -11  68 W6        29.95S WCI -15
ROLLA          FAIR      -2 -11  65 SW9       30.31S WCI -18
 ***** THE ABOVE OBSERVATIONS ARE NON NWS ARE NOT QUALITY
       CONTROLLED AND MAY MIS-REPORT RAIN FOR SNOW...
$$

  *****  WEATHER ACROSS NORTHERN MINNESOTA  *****

CITY           SKY/WX    TMP DP  RH WIND       PRES   REMARKS
FLAG ISLAND    MOSUNNY   -9 -15  77 S3        30.33F
WARROAD        MOSUNNY   -8 -13  77 SW7       30.36S WCI -22
ROSEAU         MOSUNNY   -8 -15  71 SW7       30.37S WCI -22
HALLOCK        NOT AVBL
THF RVR FALLS  MOSUNNY   -9 -24  49 SW8       30.41R WCI -26
BAUDETTE       MOSUNNY   -9 -13  83 CALM      30.35S
WASKISH        MOSUNNY   -4  -9  77 SW7       30.39R WCI -18
CROOKSTON      MOSUNNY   -8 -13  77 SW8       30.47R WCI -23
$$
  *****  WEATHER ACROSS CENTRAL AND WEST MINNESOTA  *****

CITY           SKY/WX    TMP DP  RH WIND       PRES   REMARKS
FOSSTON        MOSUNNY   -8 -13  77 S9        30.42S WCI -25
BEMIDJI        MOSUNNY   -5 -10  80 SW3       30.39S
PARK RAPIDS    MOSUNNY   -6 -10  83 CALM      30.42R
ELBOW LAKE     FAIR      -8 -12  83 S3        30.49R
WADENA         MOSUNNY   -6  -9  84 W5        30.44S WCI -17
DETROIT LAKES  MOSUNNY   -4  -8  84 S5        30.44S WCI -15
MOORHEAD       SUNNY     -4  -8  84 SW6       30.50S WCI -16
FERGUS FALLS   SUNNY     -6 -11  77 SW6       30.53S WCI -18
MORRIS MN      SUNNY     -4  -9  77 CALM      30.50S
STAPLES        SUNNY     -6  -8  92 W3        30.45S
$$
  *****  WEATHER ELSEWHERE ACROSS MINNESOTA  *****

CITY           SKY/WX    TMP DP  RH WIND       PRES   REMARKS
DULUTH         MOSUNNY   -2 -10  69 W7        30.39S WCI -15
INTRNTL FALLS  PTSUNNY   -6 -12  75 W6        30.37S WCI -19
ELY            SUNNY     -8 -11  84 SW5       30.36S WCI -19
CLOQUET        SUNNY     -2  -9  71 W3        30.41S
WHEATON        SUNNY     -8 -13  77 CALM      30.53S
BRAINERD       SUNNY     -5 -10  79 SW7       30.46R WCI -19
HIBBING        MOSUNNY   -3 -10  72 W5        30.39R WCI -13
ALEXANDRIA     SUNNY     20 -10  26 W6        30.47R WCI  12
SAINT CLOUD    SUNNY     -1  -7  75 SW5       30.51R WCI -11
MINNEAPOLIS    SUNNY     -2  -8  76 SW3       30.56R
$$

  *****  WEATHER ACROSS SOUTH DAKOTA  *****

CITY           SKY/WX    TMP DP  RH WIND       PRES   REMARKS
SIOUX FALLS    SUNNY     -1  -6  79 W3        30.54R
BROOKINGS      NOT AVBL
WATERTOWN      SUNNY     -6 -10  83 SW5       30.46R WCI -17
HURON          MOSUNNY   -9 -14  78 SE3       30.53R
SISSETON         N/A      2  -7  66 W12       30.49R WCI -15
ABERDEEN       SUNNY     -9 -16  71 S6        30.51R WCI -22
MITCHELL       SUNNY      2  -4  76 SW3       30.55S
PIERRE         SUNNY      2  -2  83 E3        30.44R
MOBRIDGE       MOSUNNY   -3  -9  75 SE6       30.38F WCI -15
RAPID CITY     SUNNY      2  -4  76 SE13      30.21F WCI -15
$$

  *****  SOME WEATHER IN NEARBY STATES *****

CITY           SKY/WX    TMP DP  RH WIND       PRES   REMARKS
GLASGOW MT     PTCLDY     2  -5  72 SE15      30.11S WCI -17
GREAT FALLS MT CLOUDY     7   4  87 NW5       29.94R WCI  -2
CHEYENNE WY    CLOUDY     3   0  87 S13       29.95R FOG     WCI -14
SCOTTSBLUFF NE CLOUDY     8   2  76 SE17      30.17S WCI -10
OMAHA NE       SUNNY      3  -3  76 CALM      30.64R
DES MOINES IA  MOSUNNY    0  -8  69 NW5       30.64R WCI -10
DAVENPORT IA   SUNNY    -11 -17  75 W6        30.63R WCI -25
CHICAGO IL     SUNNY      5  -6  60 W7        30.57R WCI  -7
EAU CLAIRE WI  SUNNY     -2 -11  65 W8        30.54R WCI -17
LA CROSSE WI   SUNNY     -3  -9  75 S7        30.60R WCI -16
$$

  *****  SOME NATIONAL WEATHER *****

CITY           SKY/WX    TMP DP  RH WIND       PRES   REMARKS
LA GUARDIA NY  SUNNY     21   7  54 N9        30.40R WCI  11
RALEIGH NC     MOSUNNY   36  26  67 N7        30.37R
ATLANTA GA     MOSUNNY   36  25  64 NW13      30.38R
NEW ORLEANS LA PTSUNNY   41  31  67 NE17      30.40R
OKLAHOMA CITY  CLOUDY    19   2  47 NE12      30.55R WCI   7
ALBUQUERQUE NM CLOUDY    24  17  74 NW3       30.00R
SALT LAKE CITY CLOUDY    33  24  69 S8        29.83R
LOS ANGELES CA MOCLDY    54  51  90 E5        29.83F
BOISE ID       CLOUDY    38  31  76 SE10      29.78S
SEATTLE WA     LGT RAIN  46  43  89 E7        29.72S
$$

*** WEATHER ACROSS MANITOBA...SASKATCHEWAN AND ONTARIO ***
                ***ONTARIO***

CITY           SKY/WX    TMP DP  RH WIND       PRES   REMARKS
GERALDTON      MOSUNNY    1  -9  60 W8        30.19S WCI -12
THUNDER BAY    MOSUNNY    0 -13  55 W10       30.38S WCI -17
SIOUX LOOKOUT  PTSUNNY   -6 -13  71 SW6       30.26R WCI -18
TORONTO        MOSUNNY    9  -4  56 NW14      30.46R WCI  -8
BIG TROUT LK   SUNNY      3  -9  55 W10G17    29.93F WCI -12
PICKLE LAKE    MOSUNNY    0 -13  55 W10       30.11S WCI -17
DRYDEN         SUNNY     -8 -13  77 SW7       30.27R WCI -22
KENORA         PTSUNNY   -8 -13  77 SW9       30.29S WCI -25
$$
                *** MANITOBA***

CITY           SKY/WX    TMP DP  RH WIND       PRES   REMARKS
BRANDON        CLOUDY   -17 -24  70 W8        30.33F WCI -34
DAUPHIN        SUNNY     -4 -13  65 NW9       30.27S WCI -20
ISLAND LAKE    MOSUNNY   -2 -13  60 W10       30.04R WCI -19
PILOT MOUND      N/A    -18 -24  76 SW6         N/A  WCI -33
THE PAS        PTSUNNY   -2 -11  65 W14       30.13S WCI -21
THOMPSON       FLURRIES   3  -4  72 W5        29.98S WCI  -6
WINNIPEG       MOSUNNY   -6 -17  59 SW8       30.36S WCI -21
LYNN LAKE      LGT SNOW   3  -2  78 NW15      30.00S WCI -15
CHURCHILL      LGT SNOW   1  -2  85 NW16      29.87S DRFTSNOWWCI -18
GILLAM         FLURRIES   5   0  78 W9        29.91S WCI  -9
$$
                ***SASKATCHEWAN***

CITY           SKY/WX    TMP DP  RH WIND       PRES   REMARKS
ESTEVAN        PTSUNNY  -11 -17  77 S6        30.25S WCI -25
KINDERSLEY     MOCLDY    -6 -11  77 SW2       30.08S
LLOYDMINSTER   CLOUDY     0  -6  78 NW7       30.10R WCI -13
PRINCE ALBERT  CLOUDY   -18 -24  76 W2        30.16F
REGINA         PTSUNNY  -15 -18  84 SE10      30.20S WCI -35
YORKTON        SUNNY     -9 -15  77 SW14      30.20F WCI -31
N. BATTLEFORD  CLEAR    -13 -18  77 CALM      30.15S
LA RONGE       MOCLDY     1  -6  71 W7        30.14R WCI -11
SASKATOON      CLOUDY   -11 -18  70 SW2       30.16S
SWIFT CURRENT  CLEAR      0  -6  78 SW14      30.03S WCI -19
$$
NOTE: THESE ARE AUTOMATED STATIONS WITH LIMITED QUALITY CONTROL
      "FAIR" INDICATES FEW OR NO CLOUDS BELOW 12,000 FEET WITH NO
      SIGNIFICANT WEATHER AND/OR OBSTRUCTIONS TO VISIBILITY.
      SKY/WX - SKY CONDITION AND SIGNIFICANT WEATHER.
      TMP - AIR TEMPERATURE.    DP   - DEWPOINT TEMPERATURE.
      RH  - RELATIVE HUMIDITY.  PRES - PRESSURE.
      HX  - HEAT INDEX.         WCI  - WIND CHILL INDEX.
$



USA.gov is the U.S. government's official web portal to all federal, state and local government web resources and services.